Location: Stilling
(56.0622°N, 9.9882°E)
Time: 00:12:10
(UTC+00:00)

Cosmos 1680 Rocket - Pass Details

Date: 13 July 2020
Orbit: 760 x 781 km, 74.1° (Epoch: 03 August)

Event Time Altitude Azimuth Distance (km) Brightness Sun altitude
Rises 21:48:53 0° 225° (SW) 3,261 6.5 -9.6°
Reaches altitude 10° 21:51:20 10° 230° (SW) 2,337 5.8 -9.7°
Maximum altitude 21:56:31 51° 306° (NW) 981 4.5 -10.0°
Drops below altitude 10° 22:01:43 10° 23° (NNE) 2,346 6.8 -10.3°
Sets 22:04:11 0° 29° (NNE) 3,275 7.4 -10.4°
